User: anonymous   Login
Location: Newark
(50.4348°N, 30.5552°E)
Time: 19:17:28
(UTC+00:00)
Language:

deb Explorer IX - Orbit

View from above orbital plane
View from above orbital plane
View from above satellite
View from above satellite

Ground track
Ground track

The orbit data is extracted from the following two-line orbital elements,

1    85U 61004C   20027.27977800 +.00002609 +00000-0 +58863-3 0  9995
2    85 038.7704 026.0139 0383756 272.4646 083.2228 14.20292071910876
Epoch (UTC): 27 January 2020 06:42:52
Eccentricity: 0.0383756
inclination: 38.7704°
perigee height: 548 km
apogee height: 1101 km
right ascension of ascending node: 26.0139°
argument of perigee: 272.4646°
revolutions per day: 14.20292071
mean anomaly at epoch: 83.2228°
orbit number at epoch: 91087

The dashed part of the orbit path shows where the satellite is in the earth's shadow,  

DLR